{"data":{"norad_id":46342,"intl_designator":"2020-062T","name":"STARLINK-1762","alt_names":[],"object_type":"PAYLOAD","status":"ACTIVE","operator":null,"country":"US","launch_date":"2020-09-03","launch_site_code":"AFETR","launch_vehicle":null,"mission":null,"orbit_class":"UNKNOWN","rcs_meters":null,"size_class":null,"mass_kg":null,"dimensions":null,"purposes":["comms"],"wikipedia_slug":null,"has_3d_model":false,"image_url":null,"decayed_at":null,"tle_current":{"epoch":"2026-05-24T19:34:38.420544Z","epoch_age_seconds":94061,"freshness":"FRESH","line1":"1 46342U 20062T   26144.81572246  .00042639  00000+0  11863-2 0  9995","line2":"2 46342  53.1568  15.8064 0004341 134.3186 225.8174 15.36431874316079","mean_motion":15.36431874,"eccentricity":0.0004341,"inclination_deg":53.1568,"raan_deg":15.8064,"arg_perigee_deg":134.3186,"mean_anomaly_deg":225.8174,"bstar":0.0011863,"rev_number":31607,"period_min":93.723647912293,"perigee_km":453.70374888786,"apogee_km":459.6377289668,"semimajor_km":6834.8077389273,"source":"CELESTRAK","updated_at":"2026-05-25T13:38:16.471331Z"}}}